| time (UTC) | temp C | wind direction | speed KPH | gust KPH | rain 1hr cm | rain 24hr cm | rain mn cm | humidity % | barometer mb |
| 20260507200058 | 28 | 70 | 8.0 | 16.1 | 0.00 | 0.00 | 0.00 | 63 | 1015.2 |
| 20260507194602 | 28 | 81 | 4.8 | 17.7 | 0.00 | 0.00 | 0.00 | 61 | 1015.2 |
| 20260507193055 | 28 | 47 | 8.0 | 19.3 | 0.00 | 0.00 | 0.00 | 61 | 1015.4 |
| 20260507191614 | 29 | 75 | 4.8 | 19.3 | 0.00 | 0.00 | 0.00 | 58 | 1015.5 |
| 20260507190053 | 30 | 49 | 4.8 | 16.1 | 0.00 | 0.00 | 0.00 | 59 | 1015.5 |
| 20260507184558 | 29 | 49 | 11.3 | 24.1 | 0.00 | 0.00 | 0.00 | 53 | 1015.6 |
| 20260507183050 | 30 | 29 | 8.0 | 17.7 | 0.00 | 0.00 | 0.00 | 55 | 1015.5 |
| 20260507181547 | 30 | 73 | 11.3 | 20.9 | 0.00 | 0.00 | 0.00 | 56 | 1015.6 |
| 20260507180045 | 30 | 63 | 9.7 | 19.3 | 0.00 | 0.00 | 0.00 | 56 | 1015.8 |
| 20260507174545 | 30 | 59 | 6.4 | 20.9 | 0.00 | 0.00 | 0.00 | 57 | 1015.8 |
| 20260507173041 | 30 | 67 | 11.3 | 27.4 | 0.00 | 0.00 | 0.00 | 56 | 1016.3 |
| 20260507171547 | 28 | 75 | 9.7 | 19.3 | 0.00 | 0.00 | 0.00 | 59 | 1016.5 |
| 20260507170037 | 29 | 90 | 4.8 | 22.5 | 0.00 | 0.00 | 0.00 | 64 | 1016.8 |
| 20260507164547 | 28 | 101 | 6.4 | 24.1 | 0.00 | 0.00 | 0.00 | 63 | 1017.0 |
| 20260507163037 | 29 | 98 | 6.4 | 19.3 | 0.00 | 0.00 | 0.00 | 61 | 1017.2 |
| 20260507161539 | 30 | 8 | 4.8 | 22.5 | 0.00 | 0.00 | 0.00 | 63 | 1017.2 |
| 20260507160035 | 30 | 89 | 4.8 | 17.7 | 0.00 | 0.00 | 0.00 | 62 | 1017.2 |
| 20260507154531 | 30 | 112 | 11.3 | 25.7 | 0.00 | 0.00 | 0.00 | 61 | 1017.3 |
| 20260507153031 | 30 | 94 | 11.3 | 20.9 | 0.00 | 0.00 | 0.00 | 61 | 1017.3 |
| 20260507151526 | 30 | 94 | 3.2 | 19.3 | 0.00 | 0.00 | 0.00 | 63 | 1017.3 |
| 20260507150025 | 29 | 75 | 9.7 | 20.9 | 0.00 | 0.00 | 0.00 | 64 | 1017.3 |
| 20260507144522 | 29 | 70 | 8.0 | 24.1 | 0.00 | 0.05 | 0.00 | 64 | 1017.4 |
| 20260507143037 | 28 | 66 | 9.7 | 19.3 | 0.00 | 0.05 | 0.00 | 64 | 1017.6 |
| 20260507141519 | 28 | 73 | 6.4 | 19.3 | 0.00 | 0.05 | 0.00 | 65 | 1017.6 |
| 20260507140020 | 28 | 72 | 11.3 | 17.7 | 0.00 | 0.05 | 0.00 | 64 | 1017.6 |
| 20260507134517 | 28 | 46 | 8.0 | 14.5 | 0.00 | 0.05 | 0.00 | 67 | 1017.8 |
| 20260507133014 | 28 | 52 | 8.0 | 20.9 | 0.00 | 0.05 | 0.00 | 67 | 1017.8 |
| 20260507131512 | 28 | 72 | 6.4 | 17.7 | 0.00 | 0.05 | 0.00 | 67 | 1017.9 |
| 20260507130028 | 28 | 41 | 3.2 | 17.7 | 0.00 | 0.05 | 0.00 | 66 | 1018.0 |
| 20260507124507 | 28 | 70 | 8.0 | 17.7 | 0.00 | 0.05 | 0.00 | 69 | 1017.8 |
| 20260507123005 | 27 | 97 | 4.8 | 14.5 | 0.00 | 0.05 | 0.00 | 69 | 1017.8 |
| 20260507121504 | 27 | 101 | 4.8 | 19.3 | 0.00 | 0.05 | 0.00 | 70 | 1017.8 |
| 20260507114600 | 27 | 80 | 3.2 | 9.7 | 0.00 | 0.05 | 0.00 | 74 | 1017.6 |
| 20260507113056 | 27 | 58 | 3.2 | 12.9 | 0.00 | 0.05 | 0.00 | 75 | 1017.5 |
| 20260507111553 | 26 | 84 | 6.4 | 11.3 | 0.00 | 0.05 | 0.00 | 77 | 1017.5 |
| 20260507110052 | 26 | 56 | 3.2 | 9.7 | 0.00 | 0.05 | 0.00 | 79 | 1017.6 |
| 20260507104554 | 26 | 51 | 1.6 | 6.4 | 0.00 | 0.05 | 0.00 | 80 | 1017.6 |
| 20260507103048 | 25 | 111 | 1.6 | 6.4 | 0.00 | 0.05 | 0.00 | 83 | 1017.5 |
| 20260507101548 | -17 | 0.0 | 0.0 | 0.00 | 0.05 | 0.00 | 1017.4 | ||
| 20260507100055 | -17 | 0.0 | 0.0 | 0.00 | 0.05 | 0.00 | 1017.2 | ||
| 20260507094549 | -17 | 0.0 | 0.0 | 0.00 | 0.05 | 0.00 | 1017.2 | ||
| 20260507093046 | -17 | 0.0 | 0.0 | 0.00 | 0.05 | 0.00 | 1017.1 | ||
| 20260507091547 | -17 | 0.0 | 0.0 | 0.00 | 0.05 | 0.00 | 1017.0 | ||
| 20260507090056 | -17 | 0.0 | 0.0 | 0.00 | 0.05 | 0.00 | 1017.0 | ||
| 20260507084552 | -17 | 0.0 | 0.0 | 0.00 | 0.05 | 0.00 | 1016.8 | ||
| 20260507083045 | -17 | 0.0 | 0.0 | 0.00 | 0.05 | 0.00 | 1016.8 | ||
| 20260507081552 | -17 | 0.0 | 0.0 | 0.00 | 0.05 | 0.00 | 1016.8 | ||
| 20260507080047 | -17 | 0.0 | 0.0 | 0.00 | 0.05 | 0.00 | 1016.8 | ||
| 20260507074544 | -17 | 0.0 | 0.0 | 0.00 | 0.05 | 0.00 | 1016.8 | ||
| 20260507073042 | -17 | 0.0 | 0.0 | 0.00 | 0.05 | 0.00 | 1016.7 | ||
| 20260507071538 | -17 | 0.0 | 0.0 | 0.00 | 0.05 | 0.00 | 1016.8 | ||
| 20260507070036 | -17 | 0.0 | 0.0 | 0.00 | 0.05 | 0.00 | 1016.8 | ||
| 20260507064546 | -17 | 0.0 | 0.0 | 0.00 | 0.05 | 0.00 | 1017.0 | ||
| 20260507063024 | -17 | 0.0 | 0.0 | 0.00 | 0.05 | 0.00 | 1017.1 | ||
| 20260507061519 | -17 | 0.0 | 0.0 | 0.00 | 0.05 | 0.00 | 1017.2 | ||
| 20260507060016 | -17 | 0.0 | 0.0 | 0.00 | 0.05 | 0.00 | 1017.5 | ||
| 20260507054510 | -17 | 0.0 | 0.0 | 0.00 | 0.05 | 0.00 | 1017.6 | ||
| 20260507053007 | -17 | 0.0 | 0.0 | 0.00 | 0.05 | 0.00 | 1017.7 | ||
| 20260507051502 | -17 | 0.0 | 0.0 | 0.00 | 0.05 | 0.00 | 1017.7 | ||
| 20260507050057 | -17 | 0.0 | 0.0 | 0.00 | 0.05 | 0.00 | 1017.9 | ||
| 20260507044557 | 24 | 107 | 1.6 | 4.8 | 0.00 | 0.08 | 0.00 | 81 | 1018.1 |
| 20260507043052 | 24 | 101 | 0.0 | 4.8 | 0.00 | 0.08 | 0.00 | 81 | 1018.3 |
| 20260507041550 | 24 | 77 | 1.6 | 6.4 | 0.00 | 0.08 | 0.00 | 81 | 1018.6 |
| 20260507040045 | 24 | 93 | 1.6 | 4.8 | 0.00 | 0.08 | 0.00 | 81 | 1018.8 |
| 20260507034545 | 25 | 92 | 1.6 | 8.0 | 0.00 | 0.08 | 0.08 | 81 | 1019.0 |
| 20260507033045 | 25 | 105 | 1.6 | 6.4 | 0.00 | 0.08 | 0.08 | 81 | 1019.1 |
| 20260507031545 | 25 | 77 | 1.6 | 4.8 | 0.00 | 0.08 | 0.08 | 81 | 1019.3 |
| 20260507030042 | 25 | 129 | 1.6 | 4.8 | 0.00 | 0.08 | 0.08 | 81 | 1019.3 |
| 20260507024543 | 25 | 101 | 0.0 | 4.8 | 0.00 | 0.10 | 0.08 | 81 | 1019.3 |
| 20260507023044 | 25 | 81 | 1.6 | 6.4 | 0.00 | 0.10 | 0.08 | 81 | 1019.3 |
| 20260507021544 | 25 | 88 | 1.6 | 6.4 | 0.00 | 0.10 | 0.08 | 81 | 1019.2 |
| 20260507020053 | 25 | 113 | 1.6 | 6.4 | 0.00 | 0.10 | 0.08 | 81 | 1019.1 |
| 20260507014546 | 25 | 115 | 1.6 | 8.0 | 0.00 | 0.10 | 0.08 | 80 | 1019.0 |
| 20260507013042 | 25 | 77 | 1.6 | 8.0 | 0.00 | 0.10 | 0.08 | 80 | 1018.9 |
| 20260507011541 | 25 | 87 | 1.6 | 6.4 | 0.00 | 0.10 | 0.08 | 80 | 1018.7 |
| 20260507010055 | 25 | 67 | 1.6 | 8.0 | 0.00 | 0.10 | 0.08 | 80 | 1018.5 |
| 20260507004538 | 25 | 128 | 1.6 | 6.4 | 0.00 | 0.10 | 0.08 | 80 | 1018.7 |
| 20260507003039 | 25 | 76 | 3.2 | 6.4 | 0.00 | 0.10 | 0.08 | 80 | 1018.5 |
| 20260507001536 | 25 | 72 | 1.6 | 8.0 | 0.00 | 0.10 | 0.08 | 79 | 1018.3 |
| 20260506234534 | 25 | 120 | 1.6 | 9.7 | 0.00 | 0.10 | 0.08 | 78 | 1018.0 |
| 20260506233034 | 25 | 103 | 1.6 | 6.4 | 0.00 | 0.10 | 0.08 | 78 | 1017.8 |
| 20260506231533 | 26 | 115 | 1.6 | 6.4 | 0.00 | 0.10 | 0.08 | 77 | 1017.7 |
| 20260506230036 | 26 | 136 | 1.6 | 6.4 | 0.00 | 0.10 | 0.08 | 75 | 1017.5 |
| 20260506224537 | 26 | 127 | 1.6 | 8.0 | 0.00 | 0.10 | 0.08 | 74 | 1017.3 |
| 20260506223031 | 26 | 115 | 4.8 | 12.9 | 0.00 | 0.10 | 0.08 | 74 | 1017.0 |
| 20260506221531 | 27 | 76 | 3.2 | 11.3 | 0.00 | 0.10 | 0.08 | 73 | 1016.8 |
| 20260506220036 | 27 | 90 | 6.4 | 16.1 | 0.00 | 0.10 | 0.08 | 71 | 1016.8 |
| 20260506214531 | 27 | 116 | 6.4 | 14.5 | 0.00 | 0.10 | 0.08 | 69 | 1016.9 |
| 20260506213029 | 27 | 61 | 8.0 | 17.7 | 0.00 | 0.10 | 0.08 | 69 | 1016.8 |
| 20260506211530 | 28 | 145 | 8.0 | 16.1 | 0.00 | 0.10 | 0.08 | 67 | 1016.6 |
| 20260506210031 | 28 | 86 | 6.4 | 19.3 | 0.00 | 0.10 | 0.08 | 66 | 1016.6 |
| 20260506204532 | 28 | 119 | 6.4 | 17.7 | 0.00 | 0.10 | 0.08 | 63 | 1016.6 |
| 20260506203025 | 29 | 125 | 8.0 | 16.1 | 0.00 | 0.10 | 0.08 | 59 | 1016.6 |
| 20260506201535 | 29 | 139 | 6.4 | 20.9 | 0.00 | 0.10 | 0.08 | 61 | 1016.6 |